QPF
0.03 0.02 0.02 0.02 0.02 0.02 0.01 0.01 0.01 0.00 0.00 0.00 0.01 0.01 0.01 0.02 0.02 0.03 0.03 0.04 0.03 0.03 0.02 0.01 0.01 0.01 0.01 0.01 0.01 0.01 0.01 0.02 0.02 0.03 0.02 0.02 0.03 0.03 0.02 0.02 0.02 0.03 0.05
0.04 0.03 0.03 0.02 0.02 0.01 0.01 0.01 0.00 0.00 0.00 0.00 0.00 0.01 0.01 0.01 0.01 0.01 0.01 0.01 0.02 0.02 0.03 0.02 0.01 0.01 0.01 0.01 0.01 0.01 0.01 0.01 0.01 0.02 0.02 0.03 0.03 0.04 0.03 0.03 0.03 0.04 0.05
0.05 0.05 0.04 0.03 0.03 0.02 0.02 0.01 0.00 0.00 0.00 0.00 0.00 0.01 0.00 0.01 0.01 0.00 0.00 0.00 0.00 0.00 0.01 0.01 0.00 0.00 0.01 0.01 0.01 0.01 0.01 0.01 0.02 0.02 0.02 0.04 0.06 0.06 0.05 0.04 0.03 0.04 0.04
0.05 0.03 0.03 0.03 0.03 0.03 0.02 0.01 0.01 0.00 0.00 0.00 0.00 0.00 0.00 0.01 0.01 0.00 0.00 0.00 0.00 0.00 0.00 0.00 0.00 0.00 0.00 0.00 0.01 0.01 0.01 0.01 0.02 0.02 0.03 0.05 0.08 0.10 0.08 0.06 0.05 0.04 0.03
0.09 0.06 0.04 0.03 0.02 0.02 0.02 0.01 0.01 0.01 0.00 0.00 0.00 0.00 0.00 0.01 0.01 0.00 0.00 0.00 0.00 0.00 0.00 0.00 0.01 0.01 0.01 0.01 0.01 0.01 0.01 0.01 0.02 0.02 0.02 0.03 0.05 0.09 0.10 0.08 0.05 0.04 0.03
0.10 0.09 0.08 0.05 0.04 0.03 0.02 0.01 0.01 0.01 0.00 0.00 0.00 0.00 0.00 0.00 0.00 0.00 0.00 0.00 0.00 0.00 0.00 0.00 0.01 0.01 0.02 0.02 0.02 0.03 0.03 0.02 0.02 0.02 0.02 0.02 0.03 0.05 0.06 0.07 0.06 0.04 0.03
0.05 0.05 0.05 0.04 0.03 0.03 0.03 0.02 0.01 0.01 0.01 0.00 0.00 0.00 0.00 0.00 0.00 0.00 0.00 0.00 0.00 0.00 0.00 0.00 0.00 0.01 0.01 0.02 0.03 0.04 0.05 0.04 0.04 0.03 0.03 0.02 0.03 0.04 0.04 0.05 0.05 0.04 0.02
0.05 0.05 0.05 0.05 0.04 0.03 0.02 0.02 0.01 0.01 0.01 0.00 0.00 0.00 0.00 0.00 0.00 0.00 0.00 0.00 0.00 0.00 0.00 0.00 0.00 0.01 0.01 0.02 0.02 0.03 0.04 0.04 0.04 0.03 0.04 0.05 0.05 0.06 0.05 0.05 0.04 0.03 0.02
0.05 0.04 0.04 0.04 0.04 0.04 0.03 0.02 0.01 0.01 0.01 0.01 0.00 0.00 0.00 0.00 0.00 0.00 0.00 0.00 0.00 0.00 0.01 0.01 0.01 0.01 0.01 0.02 0.02 0.03 0.03 0.03 0.04 0.05 0.07 0.09 0.11 0.10 0.07 0.04 0.03 0.03 0.02
0.03 0.03 0.02 0.02 0.02 0.02 0.02 0.01 0.01 0.00 0.01 0.00 0.00 0.00 0.00 0.00 0.00 0.00 0.01 0.01 0.01 0.01 0.01 0.02 0.02 0.01 0.01 0.02 0.02 0.02 0.03 0.03 0.03 0.04 0.05 0.07 0.07 0.05 0.05 0.04 0.04 0.03 0.02
0.03 0.02 0.02 0.02 0.02 0.02 0.01 0.01 0.01 0.01 0.01 0.01 0.00 0.00 0.00 0.00 0.00 0.00 0.01 0.01 0.02 0.02 0.01 0.01 0.01 0.02 0.02 0.02 0.02 0.03 0.04 0.03 0.03 0.03 0.04 0.04 0.04 0.03 0.03 0.05 0.05 0.03 0.02
0.03 0.03 0.03 0.03 0.04 0.03 0.02 0.02 0.01 0.01 0.01 0.01 0.00 0.00 0.00 0.00 0.00 0.00 0.01 0.01 0.02 0.01 0.01 0.01 0.01 0.02 0.03 0.03 0.03 0.03 0.04 0.03 0.03 0.04 0.04 0.05 0.04 0.03 0.03 0.04 0.03 0.02 0.01
0.03 0.03 0.02 0.03 0.03 0.02 0.01 0.01 0.01 0.00 0.01 0.01 0.00 0.00 0.00 0.00 0.00 0.00 0.01 0.01 0.02 0.01 0.01 0.01 0.01 0.02 0.02 0.03 0.03 0.02 0.03 0.03 0.02 0.02 0.02 0.03 0.04 0.03 0.03 0.03 0.02 0.02 0.02
0.04 0.04 0.04 0.03 0.03 0.02 0.01 0.01 0.01 0.01 0.00 0.00 0.00 0.00 0.00 0.00 0.00 0.00 0.01 0.01 0.01 0.01 0.01 0.02 0.01 0.01 0.01 0.01 0.01 0.02 0.02 0.02 0.02 0.02 0.02 0.02 0.03 0.03 0.04 0.03 0.02 0.03 0.03
0.03 0.03 0.02 0.02 0.02 0.03 0.02 0.01 0.01 0.00 0.00 0.00 0.00 0.00 0.00 0.01 0.01 0.01 0.01 0.01 0.01 0.01 0.01 0.02 0.03 0.01 0.01 0.01 0.01 0.01 0.02 0.02 0.02 0.02 0.02 0.02 0.02 0.02 0.03 0.02 0.02 0.01 0.01
0.02 0.01 0.01 0.01 0.01 0.01 0.01 0.01 0.00 0.00 0.00 0.00 0.00 0.00 0.00 0.01 0.01 0.01 0.01 0.01 0.01 0.01 0.01 0.01 0.03 0.03 0.02 0.02 0.02 0.02 0.02 0.02 0.02 0.02 0.03 0.03 0.03 0.02 0.01 0.01 0.01 0.01 0.00
0.02 0.01 0.01 0.01 0.01 0.01 0.01 0.00 0.00 0.00 0.00 0.00 0.00 0.00 0.00 0.01 0.01 0.00 0.00 0.01 0.00 0.01 0.02 0.02 0.01 0.01 0.02 0.02 0.02 0.02 0.02 0.03 0.03 0.02 0.03 0.03 0.02 0.01 0.01 0.01 0.00 0.00 0.00
0.01 0.01 0.01 0.01 0.01 0.01 0.01 0.00 0.00 0.00 0.00 0.00 0.00 0.00 0.00 0.00 0.00 0.00 0.00 0.00 0.00 0.00 0.01 0.02 0.03 0.02 0.01 0.01 0.01 0.02 0.01 0.01 0.02 0.03 0.02 0.02 0.02 0.01 0.01 0.00 0.00 0.00 0.00
0.00 0.00 0.00 0.00 0.00 0.00 0.00 0.00 0.00 0.00 0.00 0.00 0.00 0.00 0.00 0.00 0.00 0.00 0.00 0.00 0.00 0.00 0.01 0.01 0.02 0.01 0.01 0.01 0.02 0.02 0.01 0.01 0.01 0.01 0.01 0.01 0.01 0.01 0.00 0.00 0.00 0.00 0.00
0.00 0.00 0.00 0.00 0.00 0.00 0.00 0.00 0.00 0.00 0.00 0.00 0.00 0.00 0.00 0.00 0.00 0.00 0.00 0.00 0.00 0.00 0.00 0.01 0.01 0.02 0.02 0.02 0.01 0.01 0.01 0.01 0.01 0.01 0.01 0.01 0.01 0.00 0.00 0.00 0.00 0.00 0.00
0.00 0.00 0.00 0.00 0.00 0.00 0.00 0.00 0.00 0.00 0.00 0.00 0.01 0.00 0.00 0.00 0.00 0.00 0.00 0.00 0.00 0.00 0.00 0.00 0.00 0.01 0.01 0.00 0.01 0.02 0.02 0.02 0.01 0.01 0.01 0.01 0.01 0.01 0.00 0.00 0.00 0.00 0.00
0.00 0.00 0.00 0.00 0.00 0.00 0.00 0.00 0.00 0.00 0.00 0.00 0.00 0.00 0.00 0.00 0.00 0.00 0.00 0.00 0.00 0.00 0.00 0.00 0.00 0.00 0.00 0.00 0.01 0.02 0.02 0.03 0.02 0.02 0.01 0.01 0.01 0.00 0.00 0.00 0.00 0.00 0.00
0.00 0.00 0.00 0.00 0.00 0.00 0.00 0.00 0.00 0.00 0.00 0.00 0.00 0.00 0.00 0.00 0.00 0.00 0.00 0.00 0.00 0.00 0.00 0.00 0.00 0.00 0.00 0.00 0.00 0.00 0.01 0.01 0.01 0.01 0.00 0.00 0.00 0.00 0.00 0.00 0.00 0.00 0.00
0.00 0.00 0.00 0.00 0.00 0.00 0.00 0.00 0.00 0.00 0.00 0.00 0.00 0.00 0.00 0.00 0.00 0.00 0.00 0.00 0.00 0.00 0.00 0.00 0.00 0.00 0.00 0.00 0.00 0.00 0.00 0.00 0.00 0.00 0.00 0.00 0.00 0.00 0.00 0.00 0.00 0.00 0.00
0.00 0.00 0.00 0.00 0.00 0.00 0.00 0.00 0.00 0.00 0.00 0.00 0.00 0.00 0.00 0.00 0.00 0.00 0.00 0.00 0.00 0.00 0.00 0.00 0.00 0.00 0.00 0.00 0.00 0.00 0.00 0.00 0.00 0.00 0.00 0.00 0.00 0.00 0.00 0.00 0.00 0.00 0.00
0.00 0.00 0.00 0.00 0.00 0.00 0.01 0.00 0.00 0.00 0.00 0.00 0.00 0.00 0.00 0.00 0.00 0.00 0.00 0.00 0.00 0.00 0.00 0.00 0.00 0.00 0.00 0.00 0.00 0.00 0.00 0.00 0.00 0.00 0.00 0.00 0.00 0.00 0.00 0.00 0.00 0.00 0.00
MSLP
1018.34 1018.51 1018.58 1018.54 1018.40 1018.21 1017.98 1017.76 1017.58 1017.45 1017.40 1017.41 1017.50 1017.64 1017.83 1018.06 1018.32 1018.59 1018.87 1019.13 1019.38 1019.58 1019.73 1019.83 1019.86 1019.86 1019.84 1019.83 1019.87 1019.98 1020.17 1020.44 1020.78 1021.16 1021.53 1021.85 1022.08 1022.20 1022.18 1022.05 1021.83 1021.54 1021.23
1019.00 1019.10 1019.12 1019.05 1018.92 1018.73 1018.53 1018.35 1018.20 1018.11 1018.07 1018.09 1018.17 1018.29 1018.44 1018.62 1018.83 1019.04 1019.26 1019.47 1019.66 1019.80 1019.89 1019.92 1019.90 1019.84 1019.76 1019.70 1019.70 1019.78 1019.95 1020.23 1020.60 1021.02 1021.45 1021.84 1022.15 1022.36 1022.44 1022.42 1022.30 1022.12 1021.93
1019.73 1019.76 1019.72 1019.61 1019.46 1019.28 1019.10 1018.95 1018.84 1018.78 1018.76 1018.79 1018.85 1018.94 1019.05 1019.17 1019.31 1019.46 1019.61 1019.75 1019.87 1019.96 1020.00 1019.99 1019.93 1019.83 1019.72 1019.63 1019.60 1019.65 1019.81 1020.08 1020.44 1020.87 1021.32 1021.74 1022.10 1022.37 1022.53 1022.59 1022.57 1022.49 1022.39
1020.45 1020.40 1020.30 1020.15 1019.97 1019.79 1019.63 1019.51 1019.43 1019.40 1019.40 1019.44 1019.49 1019.55 1019.61 1019.67 1019.74 1019.81 1019.89 1019.97 1020.03 1020.07 1020.08 1020.04 1019.96 1019.84 1019.72 1019.62 1019.57 1019.60 1019.74 1019.97 1020.31 1020.71 1021.14 1021.57 1021.94 1022.24 1022.45 1022.57 1022.61 1022.61 1022.59
1021.10 1020.97 1020.80 1020.60 1020.40 1020.22 1020.08 1019.98 1019.94 1019.94 1019.97 1020.01 1020.05 1020.09 1020.11 1020.11 1020.11 1020.11 1020.12 1020.13 1020.14 1020.14 1020.12 1020.07 1019.99 1019.88 1019.76 1019.65 1019.59 1019.60 1019.70 1019.89 1020.18 1020.53 1020.92 1021.32 1021.68 1021.99 1022.22 1022.38 1022.48 1022.53 1022.56
1021.60 1021.41 1021.18 1020.95 1020.73 1020.55 1020.42 1020.36 1020.35 1020.38 1020.44 1020.49 1020.54 1020.55 1020.53 1020.49 1020.43 1020.36 1020.30 1020.26 1020.22 1020.19 1020.16 1020.10 1020.02 1019.92 1019.81 1019.71 1019.64 1019.62 1019.68 1019.83 1020.05 1020.34 1020.68 1021.03 1021.37 1021.67 1021.91 1022.10 1022.23 1022.32 1022.39
1021.93 1021.70 1021.44 1021.18 1020.96 1020.79 1020.68 1020.65 1020.67 1020.74 1020.83 1020.90 1020.95 1020.95 1020.90 1020.82 1020.70 1020.58 1020.47 1020.37 1020.29 1020.23 1020.18 1020.12 1020.05 1019.96 1019.86 1019.76 1019.68 1019.64 1019.67 1019.76 1019.93 1020.16 1020.44 1020.75 1021.06 1021.35 1021.59 1021.80 1021.95 1022.06 1022.15
1022.11 1021.85 1021.59 1021.33 1021.12 1020.97 1020.90 1020.90 1020.96 1021.06 1021.17 1021.26 1021.31 1021.30 1021.23 1021.11 1020.95 1020.78 1020.61 1020.47 1020.35 1020.26 1020.19 1020.12 1020.05 1019.97 1019.88 1019.78 1019.70 1019.65 1019.64 1019.70 1019.82 1020.01 1020.25 1020.52 1020.80 1021.08 1021.33 1021.53 1021.70 1021.82 1021.91
1022.16 1021.92 1021.68 1021.45 1021.27 1021.15 1021.11 1021.14 1021.24 1021.37 1021.50 1021.60 1021.65 1021.63 1021.54 1021.39 1021.20 1020.98 1020.77 1020.58 1020.42 1020.30 1020.20 1020.12 1020.04 1019.96 1019.87 1019.78 1019.70 1019.64 1019.62 1019.66 1019.75 1019.91 1020.12 1020.36 1020.63 1020.89 1021.14 1021.34 1021.51 1021.63 1021.70
1022.16 1021.96 1021.76 1021.58 1021.44 1021.37 1021.36 1021.43 1021.54 1021.69 1021.83 1021.93 1021.98 1021.95 1021.84 1021.66 1021.44 1021.19 1020.94 1020.71 1020.51 1020.35 1020.23 1020.13 1020.04 1019.95 1019.86 1019.78 1019.70 1019.64 1019.62 1019.65 1019.73 1019.87 1020.06 1020.29 1020.54 1020.79 1021.02 1021.22 1021.37 1021.48 1021.54
1022.15 1022.01 1021.87 1021.75 1021.66 1021.63 1021.67 1021.75 1021.88 1022.03 1022.16 1022.26 1022.29 1022.24 1022.12 1021.93 1021.68 1021.41 1021.13 1020.87 1020.64 1020.44 1020.29 1020.16 1020.06 1019.96 1019.87 1019.79 1019.72 1019.67 1019.66 1019.69 1019.76 1019.89 1020.07 1020.28 1020.50 1020.73 1020.94 1021.12 1021.25 1021.33 1021.36
1022.16 1022.09 1022.02 1021.97 1021.94 1021.95 1022.00 1022.10 1022.22 1022.36 1022.47 1022.55 1022.56 1022.50 1022.37 1022.16 1021.91 1021.62 1021.33 1021.05 1020.79 1020.58 1020.40 1020.25 1020.12 1020.02 1019.93 1019.85 1019.79 1019.75 1019.74 1019.77 1019.85 1019.97 1020.12 1020.30 1020.49 1020.68 1020.85 1020.99 1021.08 1021.13 1021.13
1022.19 1022.20 1022.20 1022.20 1022.22 1022.26 1022.33 1022.42 1022.53 1022.64 1022.73 1022.78 1022.77 1022.70 1022.56 1022.35 1022.10 1021.82 1021.53 1021.24 1020.98 1020.75 1020.55 1020.38 1020.25 1020.13 1020.03 1019.96 1019.91 1019.87 1019.87 1019.90 1019.97 1020.06 1020.18 1020.32 1020.46 1020.59 1020.70 1020.79 1020.83 1020.84 1020.82
1022.22 1022.30 1022.36 1022.41 1022.47 1022.53 1022.60 1022.68 1022.76 1022.84 1022.89 1022.91 1022.89 1022.81 1022.67 1022.48 1022.24 1021.98 1021.70 1021.43 1021.17 1020.94 1020.73 1020.56 1020.41 1020.28 1020.18 1020.11 1020.05 1020.02 1020.02 1020.04 1020.08 1020.15 1020.22 1020.30 1020.37 1020.43 1020.47 1020.49 1020.49 1020.46 1020.41
1022.22 1022.35 1022.46 1022.56 1022.63 1022.70 1022.76 1022.82 1022.87 1022.91 1022.93 1022.92 1022.88 1022.80 1022.67 1022.50 1022.30 1022.07 1021.83 1021.58 1021.34 1021.11 1020.91 1020.73 1020.57 1020.44 1020.34 1020.25 1020.20 1020.16 1020.15 1020.15 1020.16 1020.18 1020.20 1020.21 1020.21 1020.19 1020.16 1020.11 1020.05 1019.99 1019.92
1022.16 1022.32 1022.47 1022.58 1022.68 1022.74 1022.79 1022.82 1022.84 1022.84 1022.83 1022.80 1022.74 1022.66 1022.55 1022.42 1022.25 1022.06 1021.86 1021.65 1021.43 1021.23 1021.03 1020.85 1020.69 1020.55 1020.44 1020.35 1020.28 1020.23 1020.20 1020.18 1020.15 1020.13 1020.09 1020.04 1019.97 1019.88 1019.78 1019.68 1019.58 1019.48 1019.41
1022.01 1022.20 1022.36 1022.50 1022.59 1022.65 1022.68 1022.69 1022.67 1022.64 1022.60 1022.55 1022.49 1022.42 1022.33 1022.22 1022.09 1021.95 1021.78 1021.61 1021.42 1021.23 1021.04 1020.86 1020.70 1020.55 1020.43 1020.33 1020.25 1020.19 1020.14 1020.09 1020.04 1019.98 1019.90 1019.79 1019.67 1019.53 1019.38 1019.24 1019.11 1019.00 1018.92
1021.79 1021.99 1022.17 1022.31 1022.40 1022.46 1022.47 1022.45 1022.41 1022.35 1022.28 1022.21 1022.14 1022.07 1022.00 1021.91 1021.82 1021.71 1021.58 1021.43 1021.27 1021.09 1020.91 1020.73 1020.56 1020.41 1020.28 1020.17 1020.08 1020.01 1019.94 1019.88 1019.81 1019.72 1019.61 1019.48 1019.33 1019.16 1018.99 1018.83 1018.69 1018.58 1018.51
1021.53 1021.73 1021.91 1022.05 1022.15 1022.19 1022.19 1022.15 1022.08 1021.99 1021.90 1021.81 1021.73 1021.66 1021.59 1021.52 1021.44 1021.35 1021.25 1021.12 1020.97 1020.80 1020.62 1020.44 1020.27 1020.10 1019.96 1019.84 1019.74 1019.66 1019.59 1019.53 1019.45 1019.36 1019.25 1019.11 1018.96 1018.79 1018.62 1018.47 1018.34 1018.24 1018.17
1021.25 1021.45 1021.63 1021.77 1021.86 1021.90 1021.88 1021.82 1021.72 1021.61 1021.49 1021.38 1021.28 1021.19 1021.12 1021.05 1020.97 1020.89 1020.80 1020.68 1020.53 1020.37 1020.18 1020.00 1019.81 1019.64 1019.49 1019.36 1019.26 1019.18 1019.11 1019.05 1018.98 1018.91 1018.81 1018.69 1018.56 1018.42 1018.28 1018.15 1018.04 1017.95 1017.90
1021.00 1021.19 1021.36 1021.50 1021.58 1021.60 1021.57 1021.49 1021.37 1021.23 1021.08 1020.94 1020.80 1020.69 1020.60 1020.52 1020.43 1020.35 1020.25 1020.13 1019.98 1019.81 1019.62 1019.43 1019.24 1019.06 1018.90 1018.76 1018.66 1018.58 1018.52 1018.47 1018.43 1018.37 1018.31 1018.23 1018.13 1018.03 1017.92 1017.82 1017.74 1017.68 1017.63
1020.77 1020.95 1021.11 1021.24 1021.31 1021.32 1021.26 1021.16 1021.01 1020.84 1020.65 1020.48 1020.31 1020.17 1020.04 1019.94 1019.83 1019.73 1019.62 1019.49 1019.34 1019.16 1018.97 1018.77 1018.57 1018.38 1018.22 1018.08 1017.98 1017.91 1017.86 1017.83 1017.80 1017.78 1017.75 1017.71 1017.65 1017.59 1017.52 1017.46 1017.40 1017.35 1017.31
1020.54 1020.71 1020.87 1020.98 1021.03 1021.02 1020.95 1020.81 1020.64 1020.43 1020.21 1019.99 1019.78 1019.60 1019.44 1019.31 1019.18 1019.06 1018.93 1018.79 1018.63 1018.45 1018.25 1018.05 1017.85 1017.66 1017.50 1017.36 1017.26 1017.19 1017.15 1017.13 1017.13 1017.13 1017.13 1017.12 1017.10 1017.07 1017.04 1017.00 1016.96 1016.91 1016.86
1020.28 1020.44 1020.58 1020.67 1020.71 1020.68 1020.58 1020.42 1020.21 1019.96 1019.70 1019.45 1019.20 1018.98 1018.79 1018.62 1018.47 1018.33 1018.19 1018.04 1017.87 1017.69 1017.50 1017.30 1017.10 1016.91 1016.75 1016.62 1016.52 1016.46 1016.42 1016.42 1016.42 1016.44 1016.46 1016.47 1016.48 1016.47 1016.45 1016.42 1016.38 1016.33 1016.27
1019.94 1020.08 1020.20 1020.28 1020.30 1020.24 1020.12 1019.93 1019.69 1019.41 1019.12 1018.83 1018.55 1018.30 1018.07 1017.88 1017.71 1017.55 1017.40 1017.24 1017.07 1016.90 1016.71 1016.51 1016.32 1016.15 1015.99 1015.86 1015.77 1015.71 1015.68 1015.68 1015.69 1015.72 1015.74 1015.76 1015.77 1015.77 1015.75 1015.71 1015.67 1015.60 1015.52
1019.46 1019.59 1019.70 1019.76 1019.75 1019.68 1019.53 1019.32 1019.05 1018.75 1018.43 1018.11 1017.81 1017.53 1017.28 1017.07 1016.88 1016.71 1016.55 1016.39 1016.22 1016.05 1015.87 1015.69 1015.51 1015.34 1015.20 1015.08 1015.00 1014.94 1014.92 1014.92 1014.93 1014.96 1014.98 1014.99 1015.00 1014.98 1014.95 1014.90 1014.83 1014.74 1014.63
Thickness
5612 5609 5606 5604 5602 5599 5597 5595 5594 5593 5593 5592 5591 5591 5591 5592 5593 5594 5595 5596 5598 5600 5601 5603 5606 5608 5610 5611 5613 5615 5616 5617 5618 5617 5617 5618 5618 5620 5621 5622 5623 5624 5625
5603 5600 5597 5595 5592 5590 5588 5587 5586 5585 5584 5583 5583 5583 5583 5584 5585 5586 5586 5588 5589 5591 5593 5595 5597 5600 5602 5604 5605 5607 5608 5610 5611 5611 5610 5610 5610 5611 5612 5613 5613 5614 5615
5595 5592 5589 5586 5583 5581 5579 5578 5577 5576 5575 5575 5575 5574 5575 5575 5576 5577 5577 5579 5580 5582 5584 5586 5588 5590 5593 5595 5597 5599 5601 5602 5603 5604 5603 5602 5602 5603 5603 5603 5604 5604 5604
5587 5583 5580 5577 5575 5572 5571 5570 5569 5568 5567 5566 5566 5566 5566 5567 5567 5568 5569 5570 5572 5573 5575 5577 5580 5582 5584 5587 5589 5591 5593 5594 5595 5596 5596 5595 5594 5594 5595 5595 5594 5594 5595
5579 5576 5572 5570 5567 5565 5563 5561 5560 5559 5559 5558 5557 5557 5558 5558 5559 5560 5561 5562 5563 5564 5567 5569 5571 5574 5576 5578 5581 5583 5585 5587 5588 5589 5589 5588 5588 5588 5588 5588 5587 5586 5586
5572 5569 5566 5563 5560 5557 5555 5553 5553 5552 5550 5550 5549 5549 5550 5550 5551 5552 5553 5553 5554 5556 5558 5561 5564 5566 5568 5571 5573 5575 5578 5580 5581 5582 5582 5582 5582 5582 5581 5581 5581 5580 5580
5565 5562 5559 5556 5553 5550 5548 5546 5545 5544 5543 5542 5542 5542 5542 5543 5544 5545 5545 5546 5547 5548 5549 5552 5555 5558 5560 5563 5565 5568 5570 5572 5573 5575 5576 5577 5576 5576 5576 5575 5575 5575 5575
5559 5556 5553 5550 5547 5544 5542 5540 5538 5537 5535 5535 5535 5535 5535 5536 5537 5538 5539 5539 5540 5540 5542 5544 5546 5549 5551 5554 5557 5559 5562 5564 5566 5567 5570 5571 5571 5571 5570 5570 5569 5568 5568
5554 5551 5548 5545 5542 5538 5536 5534 5533 5531 5530 5528 5528 5529 5529 5529 5530 5531 5532 5532 5533 5533 5535 5537 5539 5541 5544 5546 5549 5551 5554 5556 5558 5560 5562 5563 5564 5565 5565 5564 5564 5565 5565
5550 5547 5544 5541 5537 5534 5532 5530 5528 5526 5525 5524 5523 5523 5523 5523 5524 5525 5526 5526 5527 5528 5529 5530 5532 5534 5536 5539 5541 5544 5547 5548 5551 5553 5555 5557 5558 5559 5560 5561 5562 5562 5562
5546 5544 5540 5537 5534 5531 5529 5526 5524 5522 5521 5520 5519 5518 5518 5519 5519 5520 5521 5521 5521 5522 5523 5525 5527 5529 5531 5533 5535 5537 5539 5542 5544 5547 5549 5551 5553 5555 5557 5558 5558 5559 5560
5543 5540 5537 5534 5532 5529 5526 5524 5522 5519 5517 5516 5515 5515 5515 5515 5515 5516 5517 5517 5517 5517 5518 5520 5522 5524 5527 5528 5530 5532 5535 5537 5539 5542 5544 5546 5549 5551 5553 5555 5556 5557 5558
5541 5537 5534 5532 5530 5527 5524 5522 5519 5517 5515 5514 5512 5512 5512 5512 5513 5513 5514 5514 5514 5514 5515 5516 5519 5521 5523 5525 5527 5529 5531 5533 5535 5538 5540 5542 5545 5548 5550 5552 5554 5555 5556
5539 5535 5532 5529 5527 5525 5522 5520 5518 5516 5514 5513 5512 5511 5511 5511 5511 5511 5511 5511 5512 5513 5513 5515 5517 5519 5521 5523 5525 5526 5528 5530 5532 5535 5537 5539 5542 5545 5548 5550 5552 5553 5554
5538 5534 5531 5528 5526 5523 5521 5519 5518 5516 5515 5513 5512 5511 5511 5512 5512 5511 5509 5510 5511 5511 5512 5514 5516 5518 5520 5521 5523 5525 5527 5529 5531 5533 5535 5538 5540 5543 5546 5548 5549 5551 5552
5537 5534 5530 5527 5525 5523 5520 5519 5519 5518 5518 5516 5515 5513 5513 5513 5513 5512 5512 5512 5512 5512 5513 5514 5515 5517 5519 5521 5523 5525 5528 5529 5531 5532 5535 5537 5539 5542 5545 5547 5548 5550 5552
5537 5534 5531 5528 5526 5523 5522 5520 5520 5520 5520 5519 5519 5518 5517 5516 5516 5515 5514 5514 5514 5514 5514 5515 5516 5518 5520 5522 5523 5525 5527 5529 5531 5533 5535 5537 5539 5542 5544 5547 5548 5550 5552
5540 5536 5533 5530 5527 5525 5523 5522 5521 5520 5521 5522 5522 5521 5521 5520 5519 5518 5517 5516 5516 5516 5516 5517 5519 5520 5522 5523 5525 5527 5529 5531 5532 5534 5536 5538 5540 5542 5544 5547 5549 5550 5552
5543 5539 5536 5533 5530 5528 5526 5525 5524 5524 5523 5523 5524 5525 5525 5524 5523 5522 5520 5518 5519 5520 5520 5521 5522 5523 5525 5526 5528 5529 5531 5533 5534 5536 5538 5539 5541 5543 5545 5548 5549 5549 5551
5546 5543 5539 5535 5533 5532 5530 5529 5528 5528 5527 5527 5528 5528 5528 5526 5526 5526 5524 5523 5522 5524 5525 5525 5526 5527 5528 5530 5531 5532 5534 5535 5537 5539 5540 5542 5543 5545 5547 5549 5550 5552 5553
5549 5546 5543 5540 5537 5536 5534 5534 5533 5532 5532 5532 5533 5533 5531 5530 5530 5530 5530 5529 5529 5529 5530 5531 5532 5532 5533 5534 5535 5537 5538 5539 5540 5541 5543 5545 5546 5547 5548 5550 5551 5552 5553
5553 5550 5547 5545 5543 5541 5539 5538 5537 5536 5536 5537 5538 5539 5537 5536 5535 5535 5536 5536 5536 5536 5536 5536 5537 5538 5539 5540 5540 5541 5542 5543 5544 5545 5546 5547 5548 5549 5550 5551 5552 5553 5553
5558 5555 5552 5550 5547 5546 5544 5543 5542 5542 5542 5542 5542 5543 5543 5542 5542 5541 5542 5542 5542 5542 5542 5541 5542 5543 5544 5545 5545 5545 5546 5547 5548 5549 5549 5550 5551 5552 5552 5553 5553 5554 5554
5563 5560 5557 5555 5553 5551 5550 5549 5548 5548 5548 5547 5547 5548 5548 5548 5548 5548 5548 5548 5548 5548 5548 5547 5548 5549 5550 5550 5550 5550 5550 5551 5551 5551 5551 5552 5552 5553 5554 5554 5554 5555 5555
5568 5565 5563 5560 5558 5557 5555 5555 5554 5554 5553 5553 5553 5553 5553 5553 5553 5553 5554 5553 5553 5553 5553 5553 5553 5553 5554 5555 5555 5555 5555 5555 5554 5553 5553 5553 5553 5554 5554 5554 5554 5555 5555
5574 5571 5568 5566 5564 5562 5561 5560 5560 5559 5559 5559 5559 5559 5558 5559 5559 5559 5559 5558 5558 5558 5558 5558 5558 5558 5558 5558 5559 5559 5558 5557 5557 5555 5553 5553 5554 5554 5554 5554 5554 5554 5554